Flag Weather past 2 weeks in Belém, Para, Brazil

Now
88 °F

Partly sunny.


Feels Like: 93 °F
Forecast: 73 / 89 °F
Wind: 7 mph from Northeast

Location: Belem Aeroporto

Current Time: Nov 28, 2014 at 2:14:51 PM

Latest Report: Nov 28, 2014 at 1:00 PM


Visibility: N/A

Pressure: 29.86 "Hg

Humidity: 55%

Dew point: 70 °F

Location of BelémLocation

Historic Weather in Belém — Graph

°F

Belém temperature yesterday

Maximum temperature yesterday: 90 °F (at 1:00 PM)
Minimum temperature yesterday: 75 °F (at 5:00 AM)
Average temperature yesterday: 82 °F

Past Weeks' High & Low Weather Summary

 TemperatureHumidityPressure
High91 °F (Nov 24, 1:00 PM)100% (Nov 18, 3:00 AM)29.95 "Hg (Nov 18, 3:00 AM)
Low72 °F (Nov 28, 5:00 AM)49% (Nov 18, 1:00 PM)29.71 "Hg (Nov 13, 4:00 PM)
Average81 °F76%29.83 "Hg
* Reported Nov 13 1:00 PM — Nov 28 1:00 PM, Belém, Weather by CustomWeather, © 2014

Note: Actual official high and low records may vary slightly from our data, if they occured in-between our weather recording intervals... More about our weather records

Advertising

Belém weather history for previous 24 hours

 ConditionsComfort  
Time TempWeatherWind HumidityBarometerVisibility
1:00 PM
Nov 28
88 °FPartly sunny.7 mph55%29.86 "HgN/A
12:00 PM88 °FPartly sunny.14 mph59%29.89 "HgN/A
11:00 AM84 °FPartly sunny.13 mph62%29.92 "HgN/A
10:00 AM84 °FPartly sunny.13 mph66%29.92 "HgN/A
9:00 AM82 °FPartly sunny.10 mph70%29.92 "HgN/A
8:00 AM81 °FSunny.10 mph74%29.89 "Hg10 mi
7:00 AM73 °FSunny.No wind100%29.86 "Hg10 mi
6:00 AM72 °FClear.No wind100%29.86 "Hg10 mi
5:00 AM72 °FClear.No wind100%29.83 "Hg10 mi
4:00 AM73 °FClear.No wind83%29.83 "Hg10 mi
3:00 AM73 °FClear.2 mph83%29.83 "Hg10 mi
2:00 AM75 °FClear.6 mph78%29.83 "Hg10 mi
1:00 AM75 °FClear.8 mph78%29.86 "Hg10 mi
12:00 AM77 °FClear.12 mph74%29.86 "Hg10 mi
11:00 PM
Nov 27
77 °FClear.9 mph74%29.86 "Hg10 mi
10:00 PM79 °FClear.8 mph65%29.86 "Hg10 mi
9:00 PM81 °FClear.18 mph66%29.86 "Hg10 mi
8:00 PM82 °FClear.14 mph62%29.83 "Hg10 mi
7:00 PM84 °FSunny.12 mph58%29.80 "Hg10 mi
6:00 PM86 °FPassing clouds.14 mph52%29.83 "HgN/A
5:00 PM88 °FPassing clouds.9 mph59%29.77 "HgN/A
4:00 PM86 °FScattered clouds.16 mph70%29.77 "HgN/A
3:00 PM84 °FScattered clouds.18 mph74%29.77 "HgN/A
2:00 PM86 °FPartly sunny.17 mph66%29.80 "HgN/A
Weather by CustomWeather, © 2014

See weather overviewHow to use our weather pages